Location: Gerlach
(40.6516°N, 119.3568°W)
Time: 20:41:17
(UTC-08:00)

Explorer 7 - Visible Passes

Search period start: 29 January 2023 00:00
Search period end: 08 February 2023 00:00
Orbit: 480 x 660 km, 50.3° (Epoch: 29 January)

Date Brightness Start Highest point End Pass type
(mag) Time Alt. Az. Time Alt. Az. Time Alt. Az.
29 Jan 7.9 17:55:53 10° NW 18:00:10 35° NNE 18:03:54 13° E visible
29 Jan 7.7 19:36:06 10° WNW 19:40:00 57° W 19:40:00 57° W visible
30 Jan 7.6 17:56:52 10° NW 18:01:19 43° NNE 18:05:27 12° E visible
30 Jan 7.9 19:37:11 10° WNW 19:41:34 49° SW 19:41:34 49° SW visible
31 Jan 7.3 17:57:50 10° NW 18:02:24 56° NNE 18:07:06 10° ESE visible
31 Jan 8.5 19:38:23 10° WNW 19:42:37 33° SW 19:43:20 32° SSW visible
01 Feb 7.1 17:58:47 10° NW 18:03:26 75° NNE 18:08:13 10° ESE visible
01 Feb 9.3 19:39:46 10° W 19:43:27 22° SW 19:45:20 18° SSW visible
02 Feb 7.3 17:59:45 10° WNW 18:04:24 79° SW 18:09:11 10° SE visible
02 Feb 9.9 19:41:33 10° W 19:44:12 15° SW 19:46:52 10° SSW visible
03 Feb 7.9 18:00:47 10° WNW 18:05:19 54° SW 18:09:58 10° SE visible
04 Feb 8.7 18:01:54 10° WNW 18:06:10 37° SW 18:10:32 10° SSE visible
05 Feb 9.5 18:03:12 10° W 18:06:58 25° SW 18:10:49 10° S visible
06 Feb 10.0 18:04:48 10° W 18:07:43 16° SW 18:10:39 10° SSW visible
07 Feb 10.7 18:07:43 10° WSW 18:08:24 10° SW 18:09:04 10° SW visible
